Date String (YYYY-MM-DD hh:mm:ss) UTC,Instrument flags,Ambient pressure (hPa),Sample flow (lpm),Bypass flow (lpm),Sample temperature (°C),Ambient temperature (°C),ASC tube jacket temperature (°C),LED temperature (°C),Box temperature (°C),Sample RH (%),Span deviation,Mass concentration (μg/m³),Mass concentration (μg/m³),Mass concentration (μg/m³)
DateTimeUTC,F1_M11,P_M11,Q1_M11,Q2_M11,T1_M11,T2_M11,T3_M11,T4_M11,T5_M11,U1_M11,ZSPAN_M11,X2_M11,X0_M11,X1_M11
2022-02-14 04:00:00,,0829.0,4.98,0.00,24.2,23.4,00.0,33.1,26.0,05.7,0000.0,0000.93,0002.65,0000.68
2022-02-14 04:01:00,,0828.9,5.01,0.00,24.2,23.4,00.0,33.1,26.0,05.7,0000.0,0000.95,0002.72,0000.67
2022-02-14 04:02:00,,0828.9,4.98,0.00,24.2,23.4,00.0,33.1,26.0,05.7,0000.0,0000.91,0002.64,0000.66
2022-02-14 04:03:00,,0829.0,5.01,0.00,24.2,23.4,00.0,33.1,26.0,05.7,0000.0,0000.90,0002.60,0000.66
2022-02-14 04:04:00,,0828.9,4.99,0.00,24.2,23.4,00.0,33.1,26.0,05.8,0000.0,0000.90,0002.62,0000.65
2022-02-14 04:05:00,,0828.9,5.01,0.00,24.2,23.5,00.0,33.1,26.0,05.9,0000.0,0000.91,0002.66,0000.63
2022-02-14 04:06:00,,0828.8,5.00,0.00,24.2,23.4,00.0,33.1,26.0,05.7,0000.0,0000.86,0002.33,0000.59
2022-02-14 04:07:00,,0829.0,4.99,0.00,24.1,23.3,00.0,33.1,25.9,05.4,0000.0,0000.85,0002.39,0000.56
2022-02-14 04:08:00,,0828.9,5.01,0.00,24.1,23.3,00.0,33.1,25.8,05.5,0000.0,0000.85,0001.98,0000.55
2022-02-14 04:09:00,,0828.9,4.99,0.00,24.1,23.2,00.0,33.1,25.7,05.3,0000.0,0000.85,0001.69,0000.55
2022-02-14 04:10:00,,0828.9,5.00,0.00,24.0,23.2,00.0,33.1,25.7,05.6,0000.0,0000.85,0001.95,0000.54
2022-02-14 04:11:00,,0828.9,5.01,0.00,24.0,23.1,00.0,33.1,25.6,05.6,0000.0,0000.83,0001.98,0000.54
2022-02-14 04:12:00,,0829.0,5.00,0.00,24.0,23.1,00.0,33.0,25.6,05.4,0000.0,0000.79,0001.88,0000.53
2022-02-14 04:13:00,,0829.0,4.99,0.00,24.0,23.1,00.0,33.0,25.6,05.7,0000.0,0000.80,0001.91,0000.52
2022-02-14 04:14:00,,0829.1,5.01,0.00,23.9,23.0,00.0,33.0,25.5,05.7,0000.0,0000.84,0002.11,0000.51
2022-02-14 04:15:00,,0829.1,5.00,0.00,23.9,23.0,00.0,33.0,25.5,05.7,0000.0,0000.86,0002.21,0000.50
2022-02-14 04:16:00,,0829.1,4.99,0.00,23.9,23.0,00.0,33.0,25.5,05.8,0000.0,0000.89,0002.27,0000.50
2022-02-14 04:17:00,,0829.1,5.01,0.00,23.8,22.9,00.0,33.0,25.5,05.8,0000.0,0000.95,0002.47,0000.52
2022-02-14 04:18:00,,0829.1,4.99,0.00,23.8,22.9,00.0,32.9,25.5,05.8,0000.0,0000.92,0002.18,0000.52
2022-02-14 04:19:00,,0829.1,5.01,0.00,23.7,22.8,00.0,32.9,25.4,05.6,0000.0,0000.89,0002.06,0000.52
2022-02-14 04:20:00,,0829.0,5.01,0.00,23.7,22.8,00.0,32.9,25.3,05.8,0000.0,0000.87,0001.98,0000.51
2022-02-14 04:21:00,,0829.1,4.99,0.00,23.7,22.7,00.0,32.9,25.2,05.8,0000.0,0000.85,0001.72,0000.51
2022-02-14 04:22:00,,0829.1,5.01,0.00,23.6,22.7,00.0,32.8,25.2,05.7,0000.0,0000.86,0001.60,0000.52
2022-02-14 04:23:00,,0829.1,4.99,0.00,23.6,22.7,00.0,32.8,25.2,05.7,0000.0,0000.90,0001.67,0000.53
2022-02-14 04:24:00,,0829.1,5.00,0.00,23.6,22.7,00.0,32.8,25.2,05.7,0000.0,0000.94,0001.79,0000.54
2022-02-14 04:25:00,,0829.0,4.99,0.00,23.6,22.7,00.0,32.8,25.2,05.7,0000.0,0000.92,0001.91,0000.55
2022-02-14 04:26:00,,0829.1,5.02,0.00,23.6,22.8,00.0,32.8,25.3,05.5,0000.0,0000.89,0001.84,0000.56
2022-02-14 04:27:00,,0829.1,4.99,0.00,23.6,22.8,00.0,32.7,25.2,05.5,0000.0,0000.85,0001.77,0000.57
2022-02-14 04:28:00,,0829.1,5.01,0.00,23.6,22.8,00.0,32.7,25.2,05.5,0000.0,0000.82,0001.63,0000.57
2022-02-14 04:29:00,,0829.1,4.99,0.00,23.5,22.7,00.0,32.7,25.2,05.6,0000.0,0000.83,0001.75,0000.56
2022-02-14 04:30:00,,0829.1,5.01,0.00,23.5,22.7,00.0,32.7,25.2,05.7,0000.0,0000.81,0001.76,0000.56
2022-02-14 04:31:00,,0829.0,4.99,0.00,23.5,22.7,00.0,32.6,25.1,05.6,0000.0,0000.83,0001.89,0000.56
2022-02-14 04:32:00,,0829.0,5.01,0.00,23.5,22.7,00.0,32.6,25.1,05.8,0000.0,0000.84,0001.93,0000.57
2022-02-14 04:33:00,,0829.0,4.98,0.00,23.4,22.6,00.0,32.6,25.1,05.4,0000.0,0000.84,0001.92,0000.56
2022-02-14 04:34:00,,0829.0,5.00,0.00,23.4,22.6,00.0,32.6,25.1,05.2,0000.0,0000.85,0001.93,0000.56
2022-02-14 04:35:00,,0829.1,5.00,0.00,23.4,22.6,00.0,32.6,25.1,05.6,0000.0,0000.82,0001.87,0000.56
2022-02-14 04:36:00,,0829.0,4.98,0.00,23.4,22.6,00.0,32.6,25.0,05.6,0000.0,0000.83,0001.77,0000.56
2022-02-14 04:37:00,,0829.0,5.00,0.00,23.4,22.6,00.0,32.5,25.0,05.6,0000.0,0000.87,0001.77,0000.57
2022-02-14 04:38:00,,0829.0,5.01,0.00,23.4,22.6,00.0,32.5,25.0,05.7,0000.0,0000.89,0001.80,0000.57
2022-02-14 04:39:00,,0828.9,4.99,0.00,23.4,22.6,00.0,32.5,25.0,05.7,0000.0,0000.86,0001.74,0000.57
2022-02-14 04:40:00,,0829.0,5.01,0.00,23.4,22.6,00.0,32.5,25.0,05.2,0000.0,0000.87,0001.72,0000.57
2022-02-14 04:41:00,,0829.1,5.00,0.00,23.3,22.6,00.0,32.5,25.0,05.4,0000.0,0000.94,0001.86,0000.58
2022-02-14 04:42:00,,0829.0,4.99,0.00,23.3,22.6,00.0,32.5,25.0,05.7,0000.0,0000.96,0001.87,0000.58
2022-02-14 04:43:00,,0829.0,5.00,0.00,23.3,22.5,00.0,32.4,24.9,05.6,0000.0,0001.00,0001.96,0000.58
2022-02-14 04:44:00,,0829.0,5.01,0.00,23.3,22.5,00.0,32.4,24.9,05.7,0000.0,0001.00,0001.94,0000.58
2022-02-14 04:45:00,,0829.0,4.98,0.00,23.2,22.5,00.0,32.4,24.9,05.7,0000.0,0000.96,0001.89,0000.57
2022-02-14 04:46:00,,0829.0,5.01,0.00,23.2,22.5,00.0,32.4,24.9,05.6,0000.0,0000.95,0001.84,0000.57
2022-02-14 04:47:00,,0828.9,4.99,0.00,23.2,22.4,00.0,32.4,24.9,05.6,0000.0,0000.92,0002.20,0000.57
2022-02-14 04:48:00,,0829.0,5.01,0.00,23.2,22.5,00.0,32.3,24.9,05.1,0000.0,0000.90,0002.18,0000.57
2022-02-14 04:49:00,,0829.0,4.99,0.00,23.2,22.5,00.0,32.3,24.9,05.1,0000.0,0000.89,0002.15,0000.56
2022-02-14 04:50:00,,0829.0,5.01,0.00,23.2,22.5,00.0,32.3,24.9,05.1,0000.0,0000.91,0002.15,0000.57
2022-02-14 04:51:00,,0829.1,4.99,0.00,23.2,22.5,00.0,32.3,24.9,05.4,0000.0,0000.91,0002.36,0000.57
2022-02-14 04:52:00,,0829.2,5.00,0.00,23.2,22.5,00.0,32.3,25.0,05.5,0000.0,0000.85,0002.26,0000.56
2022-02-14 04:53:00,,0829.1,5.01,0.00,23.2,22.6,00.0,32.3,25.0,05.7,0000.0,0000.84,0002.14,0000.56
2022-02-14 04:54:00,,0829.1,4.99,0.00,23.3,22.6,00.0,32.3,25.1,05.9,0000.0,0000.82,0002.23,0000.56
2022-02-14 04:55:00,,0829.1,5.01,0.00,23.3,22.7,00.0,32.3,25.1,05.9,0000.0,0000.83,0002.29,0000.56
2022-02-14 04:56:00,,0829.1,4.98,0.00,23.3,22.7,00.0,32.3,25.1,05.9,0000.0,0000.86,0002.36,0000.57
2022-02-14 04:57:00,,0829.2,4.99,0.00,23.3,22.7,00.0,32.3,25.1,05.7,0000.0,0000.89,0002.48,0000.57
2022-02-14 04:58:00,,0829.2,5.01,0.00,23.4,22.8,00.0,32.3,25.2,05.8,0000.0,0000.90,0002.01,0000.57
2022-02-14 04:59:00,,0829.1,5.00,0.00,23.4,22.8,00.0,32.3,25.2,05.6,0000.0,0000.91,0002.06,0000.57
